• In Uzbekistan
  • List of Countries
  • For 7 days
  • Water Temperature
  • Satellite Maps
  • Weather Map
  • Weather Widgets
  • user-avatar
    Login

    Hourly Weather Sevan

    Today, 18 October, Wednesday

    Time Temperature Precipitation Wind Pressure Humidity
    00:00 +6°C° 0 mm 1 mps 643 mmHg 73%
    01:00 +6°C° 0 mm 1 mps 643 mmHg 74%
    02:00 +5°C° 0 mm 1 mps 643 mmHg 75%
    03:00 +5°C° 0 mm 1 mps 643 mmHg 76%
    04:00 +5°C° 0 mm 1 mps 643 mmHg 76%
    05:00 +5°C° 0 mm 1 mps 643 mmHg 77%
    06:00 +5°C° 0 mm 1 mps 643 mmHg 77%
    07:00 +7°C° 0 mm 1 mps 643 mmHg 69%
    08:00 +9°C° 0 mm 1 mps 644 mmHg 60%
    09:00 +11°C° 0 mm 1 mps 645 mmHg 52%
    10:00 +12°C° 0 mm 1 mps 645 mmHg 48%
    11:00 +14°C° 0 mm 1 mps 645 mmHg 44%
    12:00 +15°C° 0 mm 1 mps 645 mmHg 40%
    13:00 +15°C° 0 mm 1 mps 645 mmHg 39%
    14:00 +16°C° 0 mm 1 mps 645 mmHg 38%
    15:00 +16°C° 0 mm 2 mps 645 mmHg 38%
    16:00 +14°C° 0 mm 1 mps 645 mmHg 44%
    17:00 +12°C° 0 mm 1 mps 644 mmHg 51%
    18:00 +10°C° 0 mm 1 mps 644 mmHg 58%
    19:00 +10°C° 0 mm 1 mps 644 mmHg 61%
    20:00 +9°C° 0 mm 1 mps 644 mmHg 65%
    21:00 +9°C° 0 mm 1 mps 644 mmHg 68%
    22:00 +8°C° 0 mm 1 mps 644 mmHg 71%
    23:00 +8°C° 0 mm 1 mps 644 mmHg 74%

    Tomorrow, 19 October, Thursday

    Time Temperature Precipitation Wind Pressure Humidity
    00:00 +8°C° 0 mm 1 mps 644 mmHg 77%
    01:00 +7°C° 0 mm 1 mps 644 mmHg 78%
    02:00 +7°C° 0 mm 1 mps 644 mmHg 80%
    03:00 +7°C° 0 mm 1 mps 644 mmHg 81%
    04:00 +7°C° 0 mm 1 mps 644 mmHg 82%
    05:00 +6°C° 0 mm 1 mps 644 mmHg 83%
    06:00 +6°C° 0 mm 1 mps 644 mmHg 84%
    07:00 +8°C° 0 mm 1 mps 645 mmHg 73%
    08:00 +10°C° 0 mm 1 mps 645 mmHg 62%
    09:00 +12°C° 0 mm 1 mps 646 mmHg 51%
    10:00 +13°C° 0 mm 1 mps 646 mmHg 46%
    11:00 +14°C° 0 mm 1 mps 646 mmHg 40%
    12:00 +16°C° 0 mm 2 mps 646 mmHg 34%
    13:00 +16°C° 0 mm 2 mps 645 mmHg 34%
    14:00 +16°C° 0 mm 2 mps 645 mmHg 33%
    15:00 +16°C° 0 mm 2 mps 644 mmHg 33%
    16:00 +14°C° 0 mm 1 mps 644 mmHg 38%
    17:00 +12°C° 0 mm 1 mps 643 mmHg 43%
    18:00 +9°C° 0 mm 0 mps 643 mmHg 48%
    19:00 +9°C° 0 mm 0 mps 643 mmHg 49%
    20:00 +9°C° 0 mm 0 mps 643 mmHg 50%
    21:00 +8°C° 0 mm 0 mps 643 mmHg 51%
    22:00 +8°C° 0 mm 0 mps 643 mmHg 49%
    23:00 +9°C° 0 mm 1 mps 642 mmHg 48%

    Day after tomorrow, 20 October, Friday

    Time Temperature Precipitation Wind Pressure Humidity
    00:00 +8°C° 0 mm 1 mps 642 mmHg 47%
    01:00 +8°C° 0 mm 1 mps 642 mmHg 45%
    02:00 +8°C° 0 mm 1 mps 642 mmHg 44%
    03:00 +8°C° 0 mm 1 mps 642 mmHg 43%
    04:00 +7°C° 0 mm 1 mps 641 mmHg 43%
    05:00 +7°C° 0 mm 1 mps 641 mmHg 44%
    06:00 +7°C° 0 mm 1 mps 641 mmHg 44%
    07:00 +9°C° 0 mm 1 mps 642 mmHg 41%
    08:00 +11°C° 0 mm 1 mps 642 mmHg 38%
    09:00 +13°C° 0 mm 1 mps 643 mmHg 34%
    10:00 +14°C° 0 mm 1 mps 643 mmHg 33%
    11:00 +15°C° 0 mm 2 mps 643 mmHg 31%
    12:00 +16°C° 0 mm 2 mps 643 mmHg 30%
    13:00 +16°C° 0 mm 2 mps 643 mmHg 30%
    14:00 +16°C° 0 mm 2 mps 643 mmHg 30%
    15:00 +18°C° 0 mm 1 mps 643 mmHg 30%
    16:00 +15°C° 0 mm 1 mps 642 mmHg 34%
    17:00 +13°C° 0 mm 1 mps 642 mmHg 39%
    18:00 +11°C° 0 mm 1 mps 641 mmHg 44%
    19:00 +11°C° 0 mm 1 mps 642 mmHg 45%
    20:00 +10°C° 0 mm 1 mps 642 mmHg 46%
    21:00 +10°C° 0 mm 1 mps 642 mmHg 47%
    22:00 +10°C° 0 mm 1 mps 642 mmHg 48%
    23:00 +9°C° 0 mm 1 mps 642 mmHg 49%

    21 October, Saturday

    Time Temperature Precipitation Wind Pressure Humidity
    00:00 +9°C° 0 mm 1 mps 641 mmHg 50%
    01:00 +8°C° 0 mm 1 mps 641 mmHg 50%
    02:00 +8°C° 0 mm 1 mps 641 mmHg 51%
    03:00 +8°C° 0 mm 1 mps 641 mmHg 51%
    04:00 +8°C° 0 mm 1 mps 641 mmHg 52%
    05:00 +7°C° 0 mm 1 mps 641 mmHg 52%
    06:00 +7°C° 0 mm 1 mps 641 mmHg 53%
    07:00 +9°C° 0 mm 1 mps 642 mmHg 47%
    08:00 +11°C° 0 mm 1 mps 642 mmHg 42%
    09:00 +13°C° 0 mm 1 mps 643 mmHg 37%
    10:00 +14°C° 0 mm 1 mps 643 mmHg 35%
    11:00 +15°C° 0 mm 2 mps 643 mmHg 33%
    12:00 +16°C° 0 mm 2 mps 643 mmHg 30%
    13:00 +16°C° 0 mm 2 mps 642 mmHg 30%
    14:00 +16°C° 0 mm 2 mps 642 mmHg 30%
    15:00 +16°C° 0 mm 2 mps 642 mmHg 30%
    16:00 +15°C° 0 mm 2 mps 641 mmHg 35%
    17:00 +13°C° 0 mm 1 mps 641 mmHg 39%
    18:00 +11°C° 0 mm 1 mps 640 mmHg 43%
    19:00 +11°C° 0 mm 1 mps 641 mmHg 45%
    20:00 +10°C° 0 mm 1 mps 641 mmHg 46%
    21:00 +10°C° 0 mm 1 mps 641 mmHg 47%
    22:00 +10°C° 0 mm 1 mps 641 mmHg 48%
    23:00 +9°C° 0 mm 1 mps 640 mmHg 48%

    22 October, Sunday

    Time Temperature Precipitation Wind Pressure Humidity
    00:00 +9°C° 0 mm 1 mps 640 mmHg 49%
    01:00 +9°C° 0 mm 1 mps 640 mmHg 49%
    02:00 +8°C° 0 mm 1 mps 640 mmHg 48%
    03:00 +8°C° 0 mm 1 mps 640 mmHg 48%
    04:00 +8°C° 0 mm 1 mps 640 mmHg 48%
    05:00 +7°C° 0 mm 1 mps 640 mmHg 48%
    06:00 +7°C° 0 mm 1 mps 640 mmHg 47%
    07:00 +9°C° 0 mm 1 mps 640 mmHg 43%
    08:00 +11°C° 0 mm 1 mps 641 mmHg 38%
    09:00 +13°C° 0 mm 1 mps 642 mmHg 33%
    10:00 +14°C° 0 mm 2 mps 641 mmHg 32%
    11:00 +15°C° 0 mm 2 mps 641 mmHg 30%
    12:00 +16°C° 0 mm 2 mps 641 mmHg 29%
    13:00 +16°C° 0 mm 2 mps 641 mmHg 29%
    14:00 +16°C° 0 mm 2 mps 640 mmHg 29%
    15:00 +16°C° 0 mm 2 mps 640 mmHg 29%
    16:00 +14°C° 0 mm 2 mps 640 mmHg 33%
    17:00 +13°C° 0 mm 1 mps 639 mmHg 37%
    18:00 +11°C° 0 mm 1 mps 639 mmHg 41%
    19:00 +11°C° 0 mm 1 mps 639 mmHg 43%
    20:00 +11°C° 0 mm 1 mps 639 mmHg 45%
    21:00 +10°C° 0 mm 1 mps 640 mmHg 46%
    22:00 +10°C° 0 mm 1 mps 640 mmHg 49%
    23:00 +10°C° 0 mm 1 mps 640 mmHg 52%

    23 October, Monday

    Time Temperature Precipitation Wind Pressure Humidity
    00:00 +10°C° 0 mm 1 mps 640 mmHg 55%
    01:00 +9°C° 0 mm 1 mps 640 mmHg 58%
    02:00 +9°C° 0 mm 1 mps 640 mmHg 60%
    03:00 +9°C° 0 mm 1 mps 640 mmHg 63%
    04:00 +8°C° 0 mm 1 mps 640 mmHg 65%
    05:00 +8°C° 0 mm 1 mps 640 mmHg 67%
    06:00 +8°C° 0 mm 1 mps 641 mmHg 69%
    07:00 +9°C° 0 mm 1 mps 641 mmHg 63%
    08:00 +10°C° 0 mm 1 mps 642 mmHg 56%
    09:00 +12°C° 0 mm 1 mps 643 mmHg 50%
    10:00 +13°C° 0 mm 1 mps 643 mmHg 45%
    11:00 +14°C° 0 mm 1 mps 643 mmHg 41%
    12:00 +15°C° 0 mm 1 mps 643 mmHg 36%
    13:00 +15°C° 0 mm 1 mps 643 mmHg 36%
    14:00 +15°C° 0 mm 1 mps 643 mmHg 36%
    15:00 +15°C° 0 mm 1 mps 643 mmHg 36%
    16:00 +13°C° 0 mm 1 mps 643 mmHg 42%
    17:00 +11°C° 0 mm 1 mps 643 mmHg 49%
    18:00 +10°C° 0 mm 1 mps 643 mmHg 55%
    19:00 +9°C° 0 mm 1 mps 643 mmHg 59%
    20:00 +9°C° 0 mm 1 mps 643 mmHg 64%
    21:00 +8°C° 0 mm 2 mps 644 mmHg 68%
    22:00 +7°C° 0 mm 2 mps 644 mmHg 70%
    23:00 +7°C° 0 mm 2 mps 644 mmHg 73%
    Show more